Location: Kershaw
(34.5481°N, 80.5823°W)
Time: 15:21:32
(UTC+00:00)

Explorer 7 - Visible Passes

Search period start: 26 September 2022 00:00
Search period end: 06 October 2022 00:00
Orbit: 482 x 668 km, 50.3° (Epoch: 25 September)

Date Brightness Start Highest point End Pass type
(mag) Time Alt. Az. Time Alt. Az. Time Alt. Az.
26 Sep 8.0 00:19:51 10° NNW 00:23:36 29° NNE 00:25:03 23° ENE visible
26 Sep 9.6 02:00:12 10° WNW 02:01:13 16° WNW 02:01:13 16° WNW visible
27 Sep 7.3 00:22:08 10° NW 00:26:13 43° NE 00:27:38 31° E visible
27 Sep 9.8 02:03:08 10° WNW 02:03:49 13° W 02:03:49 13° W visible
28 Sep 6.7 00:24:30 10° NW 00:28:45 71° NE 00:30:19 35° ESE visible
29 Sep 7.0 00:26:58 10° NW 00:31:12 69° SW 00:33:09 29° SSE visible
30 Sep 8.0 00:29:35 10° WNW 00:33:34 39° SW 00:36:06 18° SSE visible
01 Oct 8.9 00:32:29 10° WNW 00:35:51 23° SW 00:39:05 10° S visible
02 Oct 9.6 00:35:57 10° W 00:38:04 14° SW 00:40:08 10° SSW visible
